Weather History for Berlin, NH

Change the Weather History Date:

Sunday, January 12, 1997

  Actual Average Record
Temperature  
Mean Temperature 16 °F -  
Max Temperature 19 °F 20 °F 45 °F (2014)
Min Temperature 14 °F 0 °F -11 °F (2009)
Degree Days  
Heating Degree Days 48    
Moisture  
Dew Point 8 °F    
Average Humidity 68    
Maximum Humidity 81    
Minimum Humidity 60    
Precipitation  
Precipitation 0.00 in - - ()
Sea Level Pressure  
Sea Level Pressure 29.79 in    
Wind  
Wind Speed 10 mph (WNW)    
Max Wind Speed 17 mph    
Max Gust Speed 25 mph    
Visibility 8 miles    
Events Snow    
Averages and records for this station are not official NWS values.
T = Trace of Precipitation, MM = Missing Value Source: NWS Daily Summary

Daily Weather History Graph

Daily Weather History Graph

Search for Another Location

Airport:

Trip Planner

Search our weather history database for the weather conditions in past years. The results will help you decide how hot, cold, wet, or windy it might be!

Date:

Astronomy

Jan. 12, 1997 Rise Set
Actual Time 7:19 AM EST 4:27 PM EST
Civil Twilight 6:46 AM EST 4:59 PM EST
Nautical Twilight 6:10 AM EST 5:36 PM EST
Astronomical Twilight 5:35 AM EST 6:11 PM EST
Moon 9:24 AM EST (1/12) 9:08 PM EST (1/12)
Length of Visible Light 10h 13m
Length of Day
9h 07m
Waxing Crescent, 17% of the Moon is Illuminated
Jan 12
Waxing Crescent
Jan 15
First Quarter
Jan 23
Full
Jan 31
Last Quarter
Feb 7
New

Hourly Weather History & Observations

Time (EST) Temp. Windchill Dew Point Humidity Pressure Visibility Wind Dir Wind Speed Gust Speed Precip Events Conditions
12:52 AM 14.0 °F 2.9 °F 3.9 °F 64% 29.66 in 10.0 mi West 8.1 mph 19.6 mph N/A   Overcast
1:52 AM 14.0 °F 2.9 °F 5.0 °F 67% 29.69 in 9.0 mi WNW 8.1 mph 18.4 mph 0.00 in Snow Light Snow
2:52 AM 14.0 °F 3.9 °F 3.0 °F 62% 29.69 in 10.0 mi WNW 6.9 mph - 0.00 in   Overcast
3:52 AM 14.0 °F 1.2 °F 3.0 °F 62% 29.71 in 10.0 mi WNW 10.4 mph 19.6 mph N/A   Overcast
4:52 AM 14.0 °F 0.5 °F 3.9 °F 64% 29.73 in 10.0 mi West 11.5 mph 17.3 mph N/A   Overcast
5:52 AM 14.0 °F 1.2 °F 3.9 °F 64% 29.74 in 10.0 mi WNW 10.4 mph 18.4 mph N/A   Overcast
6:52 AM 15.1 °F 2.5 °F 5.0 °F 64% 29.76 in 10.0 mi WNW 10.4 mph 19.6 mph N/A   Overcast
7:52 AM 15.1 °F 1.8 °F 6.1 °F 68% 29.78 in 10.0 mi West 11.5 mph - N/A   Overcast
8:52 AM 16.0 °F 0.6 °F 6.1 °F 65% 29.78 in 9.0 mi West 16.1 mph 20.7 mph N/A   Overcast
9:52 AM 18.0 °F 3.1 °F 7.0 °F 62% 29.79 in 10.0 mi West 16.1 mph 25.3 mph N/A   Overcast
10:52 AM 19.0 °F 4.5 °F 9.0 °F 65% 29.78 in 9.0 mi West 16.1 mph 20.7 mph 0.00 in   Overcast
11:52 AM 19.9 °F 5.2 °F 8.1 °F 60% 29.76 in 10.0 mi West 17.3 mph 25.3 mph 0.00 in   Overcast
12:52 PM 19.9 °F 5.7 °F 9.0 °F 62% 29.76 in 10.0 mi West 16.1 mph 23.0 mph 0.00 in   Overcast
1:52 PM 19.9 °F 5.7 °F 8.1 °F 60% 29.76 in 10.0 mi WNW 16.1 mph 19.6 mph N/A   Overcast
2:52 PM 19.9 °F 7.3 °F 9.0 °F 62% 29.78 in 10.0 mi WNW 12.7 mph 19.6 mph N/A   Overcast
3:52 PM 19.9 °F 10.1 °F 9.0 °F 62% 29.79 in 10.0 mi WNW 8.1 mph - N/A   Overcast
4:52 PM 19.0 °F 10.0 °F 10.9 °F 71% 29.80 in 5.0 mi Variable 6.9 mph - 0.00 in Snow Light Snow
5:52 PM 19.0 °F 10.0 °F 12.0 °F 74% 29.82 in 4.0 mi WNW 6.9 mph - 0.00 in Snow Light Snow
6:52 PM 18.0 °F 4.2 °F 10.9 °F 74% 29.85 in 2.5 mi WNW 13.8 mph 20.7 mph 0.00 in Snow Light Snow
7:52 PM 18.0 °F 6.9 °F 12.0 °F 78% 29.86 in 2.0 mi West 9.2 mph - 0.00 in Snow Light Snow
8:52 PM 18.0 °F - 12.9 °F 81% 29.89 in 2.0 mi Calm Calm - 0.00 in Snow Light Snow
9:52 PM 17.1 °F 8.7 °F 10.9 °F 77% 29.90 in 2.5 mi SW 5.8 mph - 0.00 in Snow Light Snow
10:52 PM 17.1 °F 5.0 °F 10.0 °F 74% 29.92 in 4.0 mi West 10.4 mph - 0.00 in Snow Light Snow
11:52 PM 16.0 °F 3.6 °F 10.9 °F 81% 29.93 in 4.0 mi West 10.4 mph 17.3 mph 0.00 in Snow Light Snow